GEFSNE_500_meanwind_168.txt.gz
Wind_Speed
53 52 52 49 46 45 45 43 41 39 39 37 37 37 36 35 36 36 36 37 37 38 39 40 41 42 43 45 46 48 50 52 54 56 58 59 59 58
53 52 52 50 47 45 45 42 41 40 38 37 37 36 35 35 35 35 36 37 38 39 39 40 41 43 43 45 47 49 51 53 55 57 58 59 58 57
53 52 52 50 46 45 44 42 41 40 38 37 36 36 35 35 34 34 36 37 38 38 39 40 42 42 44 46 48 50 53 54 56 57 57 58 57 57
51 51 50 49 47 45 43 42 41 40 38 37 36 35 34 33 34 35 35 36 37 38 39 40 41 42 44 46 49 51 53 55 55 56 57 57 57 56
51 51 50 49 47 45 43 41 40 38 37 36 36 34 33 32 33 34 35 36 37 38 39 40 41 43 45 47 50 52 54 54 54 55 56 57 56 56
50 50 49 49 47 44 42 40 39 38 36 35 35 34 33 32 33 34 35 36 37 37 39 40 42 44 46 48 50 52 53 53 54 55 56 56 56 56
48 49 48 46 44 42 41 40 39 36 35 34 34 33 32 32 32 32 34 35 36 37 39 41 43 45 47 48 50 51 52 53 54 55 56 55 55 55
45 46 46 46 44 42 41 39 36 35 34 34 33 32 31 31 31 32 33 34 35 37 39 42 44 45 47 48 50 51 51 53 54 54 55 55 55 54
43 44 44 44 44 41 38 36 35 35 35 33 31 30 31 31 32 32 33 34 36 38 40 42 44 45 47 48 49 50 51 52 53 54 54 54 53 53
41 41 42 43 42 39 37 36 36 35 34 33 32 30 31 32 32 32 33 35 37 39 41 42 43 45 46 47 48 49 50 52 53 53 53 53 53 53
38 38 40 41 39 38 37 36 35 34 34 33 32 31 30 31 32 32 33 35 37 39 41 42 43 45 45 46 48 49 50 51 52 52 52 52 52 52
38 38 38 37 36 37 37 36 35 33 33 33 31 30 31 31 31 32 33 35 37 39 40 42 43 43 43 45 47 49 49 50 51 51 51 51 51 51
38 37 36 36 36 37 36 35 34 33 32 31 30 30 30 31 32 33 34 35 37 39 40 41 41 42 43 44 46 47 48 49 50 51 50 50 51 51
36 37 36 36 37 36 36 34 33 32 32 31 30 30 30 31 31 32 33 35 37 37 38 39 40 41 42 43 44 46 47 49 50 50 49 50 50 50
35 35 36 36 36 35 34 34 33 33 32 30 29 29 30 30 30 31 32 34 35 36 37 38 39 40 41 42 43 44 45 48 49 48 48 48 48 49
34 35 35 35 35 34 33 33 32 32 30 30 29 29 30 30 30 30 32 33 34 36 37 37 38 39 41 41 42 43 45 47 47 47 47 46 47 47
34 34 34 33 33 33 32 33 32 31 30 30 30 30 30 30 29 30 32 32 33 34 36 37 37 39 39 40 41 43 45 46 46 46 45 45 46 46
32 33 33 32 31 31 31 31 30 29 29 28 28 28 28 28 29 30 31 32 32 33 34 35 36 37 39 39 41 42 43 44 44 44 44 44 45 45
31 31 31 30 30 30 30 29 28 28 27 27 27 27 27 27 28 29 30 30 31 32 34 34 35 36 37 39 40 41 41 42 42 43 43 43 43 43
31 31 30 29 29 29 29 28 27 27 27 26 26 26 25 26 27 28 29 29 30 32 33 33 34 35 36 38 39 39 40 40 41 41 42 42 42 41
31 30 30 29 28 28 28 28 27 26 26 26 25 25 24 25 26 27 27 28 29 30 31 32 33 34 35 36 37 37 39 39 39 40 40 40 39 39
29 29 29 28 27 27 27 26 25 25 25 24 23 23 24 24 25 26 26 27 27 29 29 30 31 33 33 34 35 37 38 38 38 38 38 38 38 37
28 28 28 27 26 25 25 25 24 24 23 23 23 23 23 23 24 24 25 25 26 27 28 29 30 31 32 33 34 35 36 35 35 36 36 36 36 35

GEFSNE_500_meanwind_174.txt.gz
Wind_Speed
55 55 55 56 56 54 53 51 50 50 48 45 44 42 41 41 40 40 39 38 38 38 38 38 39 40 39 39 40 41 43 45 47 49 51 53 55 56
55 54 53 55 57 55 52 51 51 50 48 45 44 43 42 40 39 40 39 38 38 38 38 39 40 39 39 39 40 42 44 45 47 50 52 54 55 56
53 53 52 54 55 53 51 50 50 50 49 47 45 43 42 40 40 39 38 37 37 38 39 40 39 38 38 39 41 42 44 46 48 51 53 54 55 56
51 51 52 54 53 51 50 50 50 50 50 48 45 43 42 41 41 40 38 38 38 38 38 39 38 38 38 40 41 43 45 47 49 52 54 55 55 55
51 51 51 52 51 50 49 49 49 50 50 49 46 43 41 40 40 39 37 38 37 37 38 39 38 38 39 41 42 43 46 48 50 52 54 55 55 55
50 50 50 50 49 49 49 48 48 49 49 47 45 43 40 39 39 38 37 37 36 37 37 37 38 39 40 41 42 44 46 49 51 53 54 54 54 53
47 48 49 49 49 49 48 47 47 48 47 45 44 43 40 39 38 37 37 36 36 35 36 37 38 39 40 41 42 45 47 50 51 52 53 53 52 51
45 47 48 49 50 49 47 46 46 46 44 45 44 41 39 38 37 37 36 36 35 35 36 37 38 39 40 41 43 45 48 50 51 51 50 50 49 50
42 44 46 46 49 47 45 44 44 43 42 43 41 39 39 38 36 36 36 35 35 35 35 37 38 39 40 41 43 45 47 49 48 48 48 48 48 49
40 42 44 44 45 44 43 42 41 40 40 40 39 39 38 37 36 34 35 36 35 35 35 36 37 38 39 41 43 45 45 46 45 45 46 47 48 48
41 41 42 42 42 42 41 40 39 40 39 39 37 37 36 35 35 34 34 35 34 34 34 35 36 37 38 40 41 42 43 44 43 44 45 47 47 48
40 40 40 39 39 40 40 39 39 38 38 37 37 36 34 34 34 33 33 33 33 33 33 34 35 36 37 39 41 41 42 42 42 43 45 46 46 48
38 38 37 37 38 39 39 38 37 37 36 35 35 34 33 33 32 32 33 32 32 32 33 33 34 35 37 39 40 40 40 41 42 43 44 45 46 47
34 35 35 35 37 37 36 37 37 36 35 34 34 33 32 32 32 32 32 32 32 31 31 32 33 34 36 37 38 39 40 41 42 42 43 44 44 45
32 33 33 34 35 34 34 34 35 35 34 33 32 31 31 31 31 31 31 30 30 30 30 31 32 34 35 36 37 38 39 40 40 40 41 42 42 44
31 33 33 33 32 32 32 33 34 34 33 32 31 31 30 30 30 30 30 30 30 30 30 31 32 33 33 34 35 37 38 38 38 39 40 40 41 42
31 32 31 31 30 30 31 32 32 32 31 30 30 30 29 29 29 29 28 28 28 29 29 29 30 31 32 33 35 36 37 36 36 37 38 39 40 40
30 30 29 29 29 29 30 30 31 30 29 29 28 28 28 28 27 27 27 26 26 27 27 28 29 31 32 33 34 35 34 34 35 36 37 38 38 38
29 29 29 28 27 28 28 29 29 29 28 27 26 26 26 26 25 25 25 24 24 25 26 27 28 29 30 31 32 33 33 33 34 35 35 35 36 36
27 28 29 28 27 27 27 28 28 28 27 26 25 25 24 24 24 23 23 23 23 24 25 26 27 28 28 30 31 30 30 31 32 33 33 34 34 35
26 27 28 27 27 27 27 27 27 26 26 25 23 23 23 22 22 21 21 21 21 22 24 24 25 26 27 28 28 27 28 29 30 31 32 32 33 34
24 26 26 26 26 26 26 26 25 25 24 23 22 22 21 20 20 20 20 21 21 22 23 23 24 24 25 25 25 26 26 28 29 30 30 31 32 32
25 24 23 24 24 26 25 24 24 24 22 21 20 20 19 19 19 19 20 20 21 21 22 23 22 22 22 23 23 24 25 26 27 28 29 30 30 30

GEFSNE_500_meanwind_180.txt.gz
Wind_Speed
53 52 52 52 53 53 53 54 53 52 50 49 49 48 49 48 47 47 46 45 45 45 44 43 42 42 42 42 41 42 42 43 45 46 46 47 48 48
53 51 49 50 51 52 53 52 52 50 49 47 47 47 47 47 46 46 47 46 45 43 43 41 41 41 41 41 42 42 42 44 45 46 46 46 47 49
53 51 49 49 50 51 52 51 50 50 49 47 47 46 45 46 45 45 46 46 44 43 42 41 41 41 41 42 42 42 42 43 43 44 46 47 48 50
52 50 48 48 49 50 51 50 49 48 47 46 46 45 45 45 44 44 44 45 45 43 41 41 41 40 41 41 41 41 41 42 43 44 46 47 49 50
48 47 46 47 47 49 50 49 47 47 46 45 46 45 44 43 43 44 43 43 42 41 41 41 40 39 39 40 40 40 41 41 42 44 46 47 49 50
45 45 45 45 46 47 47 47 46 44 45 45 45 44 43 42 42 42 41 41 40 40 42 41 39 39 39 39 39 40 40 40 42 44 46 48 49 50
44 43 43 42 43 44 44 45 45 43 43 45 45 43 42 42 42 40 40 39 40 40 40 39 39 38 38 38 40 40 40 41 43 45 46 48 49 49
42 40 40 40 41 43 43 43 43 41 41 44 44 42 40 40 39 38 38 38 39 39 37 36 36 37 37 38 38 39 41 41 43 45 47 48 48 48
40 38 38 40 40 40 40 41 41 40 40 42 43 42 41 39 38 37 36 37 37 36 35 34 34 35 35 36 37 38 39 41 43 45 47 47 47 45
37 36 37 38 38 38 39 40 40 39 40 40 40 40 41 40 38 36 35 35 34 34 34 33 33 33 35 36 37 38 39 41 43 44 45 45 44 42
34 35 37 36 36 36 37 38 38 38 38 37 38 39 40 39 36 35 34 33 31 31 32 31 31 32 33 35 37 38 38 40 42 43 43 42 41 41
32 33 34 34 34 35 35 35 35 36 36 36 37 37 38 37 35 34 33 31 30 29 30 30 30 32 33 35 37 37 38 39 40 40 40 39 39 40
30 31 32 33 32 32 33 33 33 34 34 35 36 36 36 35 34 33 31 29 28 27 27 28 29 31 33 35 36 36 36 37 38 37 37 37 38 39
29 29 29 30 30 31 32 32 32 33 33 34 34 33 33 32 32 31 29 27 26 26 26 27 29 30 32 33 33 34 34 35 35 34 35 36 37 38
28 28 28 28 29 30 31 31 31 31 31 31 30 29 29 29 29 29 28 27 27 27 27 28 29 30 31 31 31 31 32 32 32 33 34 35 35 36
25 27 27 26 27 28 29 29 29 27 27 27 26 27 27 28 27 26 26 26 26 26 26 26 28 29 29 28 29 30 30 30 30 31 33 34 34 35
25 25 25 24 25 26 26 25 25 25 25 25 25 26 26 26 25 24 24 24 24 25 25 25 25 26 25 25 26 27 27 28 28 30 31 32 33 34
23 23 24 23 24 24 24 23 24 22 22 23 24 24 24 24 23 23 23 22 22 23 23 23 23 24 24 24 24 25 25 26 27 28 29 31 32 32
22 22 22 21 21 21 22 22 22 22 22 22 22 23 23 22 22 22 21 21 21 21 21 21 22 22 22 22 22 22 23 24 25 26 28 29 30 30
20 21 21 20 19 19 20 21 21 21 21 21 21 22 21 21 21 20 20 20 19 20 19 19 20 19 19 19 20 21 21 22 23 25 26 28 28 28
20 20 21 20 20 19 19 20 20 21 21 21 21 20 20 19 19 19 19 19 19 18 18 18 17 17 17 18 19 19 20 21 22 24 25 26 26 27
19 19 20 20 19 19 19 19 20 21 21 21 20 19 18 18 18 18 18 18 17 16 15 15 15 15 16 16 17 18 18 20 22 23 23 24 25 25
18 18 19 19 18 18 18 18 18 19 20 19 18 17 17 17 16 16 16 16 15 14 13 13 14 15 15 15 16 16 17 18 20 21 22 23 23 23

GEFSNE_500_meanwind_186.txt.gz
Wind_Speed
54 55 55 55 55 54 54 55 54 53 52 51 51 51 53 53 52 52 51 51 50 50 49 48 48 47 45 45 43 43 43 43 44 44 43 44 45 46
52 52 53 53 53 52 52 52 51 51 50 50 50 49 50 51 52 52 51 49 49 49 48 48 47 46 45 45 44 44 43 43 43 43 43 43 45 47
50 50 49 50 50 50 51 51 49 48 47 47 47 47 48 49 50 50 50 49 48 48 48 47 46 46 45 44 44 43 42 43 43 43 42 44 46 46
48 48 47 48 49 49 48 49 47 46 47 47 46 46 46 47 47 48 47 47 47 47 47 46 46 46 45 43 44 43 42 43 43 42 42 44 44 45
47 45 44 46 46 46 47 47 46 45 45 46 45 45 44 45 45 46 47 48 46 46 45 45 45 45 44 45 44 42 42 42 43 42 42 43 43 44
44 43 43 44 44 44 45 46 45 43 43 43 43 43 43 43 43 44 45 45 45 46 44 44 45 44 44 45 43 42 41 41 42 42 42 43 43 45
40 40 40 41 41 42 44 44 44 42 42 42 42 41 41 41 41 42 43 43 43 43 43 43 43 43 44 43 41 41 41 40 40 41 42 43 43 44
37 38 38 39 40 41 43 43 43 41 40 41 41 41 40 40 40 40 40 41 41 40 40 39 40 40 41 39 39 39 39 39 39 40 40 42 42 42
34 35 35 36 38 40 40 40 40 40 39 40 39 39 39 39 38 37 38 39 38 38 38 38 39 38 37 38 38 37 37 38 38 39 40 41 40 40
32 33 33 33 35 36 37 37 37 38 37 37 37 38 38 38 38 36 36 36 36 37 37 36 36 36 35 36 36 35 36 37 37 38 38 39 38 39
29 30 29 31 33 35 35 35 36 37 36 35 34 35 35 35 36 35 35 35 33 33 34 34 34 33 32 32 33 34 35 35 35 36 36 36 37 38
26 27 26 28 30 32 34 35 35 36 35 34 34 33 34 34 34 33 33 33 32 32 32 32 32 30 29 30 30 31 31 32 33 34 35 36 35 36
24 24 24 27 29 30 31 32 32 34 34 33 32 32 32 32 32 32 32 32 32 32 32 30 29 28 29 29 29 29 30 31 32 32 33 33 33 34
21 22 23 24 26 27 28 29 30 32 31 31 31 31 31 31 32 32 31 31 31 30 30 29 27 26 26 27 27 27 28 29 29 30 30 30 31 32
18 19 19 21 23 24 25 26 28 29 30 30 30 29 29 29 30 30 30 29 29 29 28 27 25 25 25 26 25 26 26 27 28 28 28 28 29 30
15 16 16 18 20 20 21 23 25 26 27 28 28 28 28 27 27 28 28 28 28 27 26 25 25 24 24 25 24 24 25 25 25 25 26 26 27 26
14 15 16 18 19 20 21 22 24 25 26 26 27 27 26 26 25 25 25 26 25 25 24 24 23 22 22 22 23 23 23 22 22 22 23 23 23 23
13 14 16 18 19 21 22 23 24 24 25 25 25 26 26 24 23 23 23 24 24 23 23 22 21 21 21 20 20 20 21 21 20 20 20 21 21 21
12 13 15 17 19 20 21 22 23 23 24 24 24 25 25 24 23 23 23 23 22 21 22 21 21 20 19 19 18 17 17 17 17 17 18 18 18 18
11 13 15 17 18 19 20 21 21 22 22 22 23 24 24 23 22 22 23 23 21 20 19 18 18 17 16 15 14 14 14 14 15 15 16 16 16 15
11 11 13 16 17 18 19 19 20 20 20 21 21 23 22 22 21 21 21 21 20 18 17 16 15 14 13 12 12 12 13 13 13 13 13 13 13 12
10 10 11 14 16 17 18 18 19 19 19 20 20 20 20 20 20 19 19 18 17 16 15 14 12 12 11 10 10 11 11 12 11 11 10 10 11 11
10 9 10 11 13 15 16 17 19 19 19 19 19 19 18 18 19 19 18 17 16 15 14 13 12 11 10 9 9 9 10 10 9 8 8 9 9 9

GEFSNE_500_meanwind_192.txt.gz
Wind_Speed
51 51 52 53 54 53 52 52 53 51 50 51 53 53 54 55 54 54 54 55 56 55 54 54 54 53 53 52 52 52 50 49 48 47 48 47 46 46
50 50 50 50 50 50 50 50 50 49 48 47 49 51 52 51 51 51 51 52 53 54 54 54 53 52 53 53 53 51 51 49 48 48 49 47 47 47
50 49 49 49 49 48 48 47 46 46 46 43 44 46 48 48 48 49 48 49 49 50 50 51 51 51 52 52 52 51 49 49 49 48 46 47 48 47
49 49 48 48 47 47 47 46 45 44 44 42 41 42 44 45 46 47 47 47 46 46 46 48 49 49 50 50 50 49 49 49 48 47 46 46 47 47
49 48 47 47 46 46 45 44 43 42 41 41 40 41 42 43 44 44 45 44 45 44 44 46 47 48 49 49 48 48 48 47 47 47 47 46 47 47
47 46 46 45 45 45 44 43 42 41 40 40 39 40 40 39 40 41 42 43 43 42 43 45 45 45 47 47 47 47 47 47 46 45 46 46 46 47
44 44 44 44 43 43 42 41 40 40 39 38 38 39 38 37 39 40 41 42 41 41 41 42 42 42 44 44 45 44 45 45 44 43 44 44 44 44
41 40 40 40 39 39 40 39 39 38 37 36 36 37 36 36 37 39 40 40 39 38 38 38 39 39 40 41 41 41 41 42 41 42 42 43 42 41
37 36 35 35 36 36 37 37 36 35 35 34 34 34 33 33 34 36 36 36 37 36 36 35 36 36 36 37 38 38 39 41 40 40 41 40 40 40
32 32 32 32 32 32 33 33 33 33 33 33 33 32 32 32 32 32 33 32 33 34 35 35 35 35 35 36 36 36 36 37 37 37 38 38 38 38
29 28 29 29 29 29 29 30 30 31 31 31 31 31 30 30 30 30 30 30 32 32 32 31 32 34 34 33 32 33 34 34 35 35 36 36 36 36
27 27 27 27 28 28 28 29 29 28 28 30 30 30 29 28 28 28 27 27 27 28 28 28 29 30 31 30 29 30 31 31 31 32 33 33 33 33
26 24 25 26 25 25 25 26 26 25 25 27 27 28 28 27 26 27 26 26 25 25 26 26 26 27 27 27 26 28 29 29 29 30 30 30 30 29
22 21 21 20 20 20 20 21 22 23 23 23 24 25 25 24 24 25 25 26 25 25 25 26 26 25 25 25 25 25 26 26 27 28 29 29 27 26
21 19 18 17 16 17 17 18 19 20 21 21 22 23 23 22 23 23 24 24 24 25 25 25 25 24 25 25 24 24 24 24 25 26 26 25 24 23
19 17 16 15 14 15 16 17 18 19 20 20 21 21 21 21 21 21 22 22 22 23 24 24 23 23 22 22 22 21 22 22 22 23 22 22 21 20
17 15 13 13 13 14 16 17 18 18 19 19 19 19 20 19 19 20 20 20 20 21 21 21 21 20 19 19 19 19 19 19 19 19 18 18 18 18
16 14 12 11 12 13 14 15 17 17 17 17 18 18 18 18 18 18 18 18 18 19 19 19 18 18 17 17 17 18 17 17 16 16 16 16 15 16
14 12 11 10 11 12 13 13 15 15 15 15 15 16 17 18 18 18 18 18 19 18 18 18 17 17 16 16 15 16 14 14 13 13 13 14 14 14
12 11 10 11 11 11 12 13 14 14 14 14 14 15 15 16 16 16 16 16 16 16 16 16 16 15 14 13 12 12 11 11 11 11 11 11 11 11
10 10 10 10 11 11 11 12 14 14 14 13 13 14 14 14 14 14 15 15 15 15 15 15 14 13 12 11 10 10 10 10 9 8 8 8 8 9
10 9 9 9 10 10 11 11 12 13 13 12 12 12 12 12 13 13 13 13 14 14 15 15 14 13 11 10 9 10 10 9 8 7 7 7 7 7
9 8 8 8 8 9 10 10 10 11 11 12 12 12 11 12 12 13 13 14 14 15 15 14 13 12 11 10 9 9 8 8 8 7 6 6 6 5

GEFSNE_500_meanwind_198.txt.gz
Wind_Speed
53 53 53 52 53 53 54 55 55 53 51 51 52 53 54 54 52 52 53 54 54 56 57 58 58 58 58 57 56 56 56 56 54 54 53 52 52 51
52 52 52 52 52 53 53 53 53 52 49 48 49 50 51 51 50 48 49 50 51 52 55 56 55 56 55 54 54 55 55 55 55 54 54 53 52 51
51 51 51 52 52 52 51 51 50 49 47 45 45 46 47 47 47 46 46 47 49 49 51 52 52 51 51 51 52 53 53 54 54 54 53 52 51 51
50 50 50 51 50 49 49 49 48 46 46 43 42 43 44 44 44 42 42 43 45 46 48 48 47 48 48 49 49 50 50 51 51 52 52 51 50 50
50 50 50 49 48 47 47 46 46 44 44 42 41 41 41 41 40 39 39 40 40 40 41 43 43 44 46 47 47 47 47 47 48 48 48 49 48 48
49 49 48 46 45 44 44 43 43 42 41 39 39 38 39 39 39 38 37 37 37 37 37 37 38 40 42 44 45 45 44 44 44 44 44 45 45 44
46 46 44 43 42 41 41 41 40 39 38 38 37 36 36 36 36 36 36 34 33 34 34 34 36 38 38 40 41 41 41 41 41 41 42 42 42 42
42 41 40 39 39 39 39 38 37 37 36 35 35 34 34 35 35 35 34 34 32 33 34 34 34 35 36 37 38 38 39 38 38 39 38 37 37 38
39 37 37 37 38 38 37 35 34 34 34 33 33 32 32 32 32 33 34 33 33 33 33 32 33 34 33 34 34 35 36 36 36 36 35 34 34 34
37 36 36 36 36 36 35 33 32 33 33 32 31 31 30 30 30 31 31 31 31 32 32 32 31 31 32 32 33 33 33 32 33 33 33 33 33 33
35 35 35 34 33 33 31 30 30 30 31 29 28 28 28 28 29 29 29 29 29 29 29 29 28 28 29 30 30 30 30 29 29 30 30 31 31 31
32 32 31 31 30 29 28 28 28 28 28 27 27 26 26 26 26 26 26 27 27 26 27 27 27 26 26 26 27 28 28 28 28 27 28 29 30 29
30 29 29 28 27 26 26 26 25 25 26 26 27 27 26 25 24 24 26 26 25 24 25 26 26 26 25 25 25 26 26 27 27 27 27 28 29 28
28 27 27 26 25 25 24 24 23 23 24 25 26 26 25 24 24 23 24 24 23 22 22 22 23 24 25 25 24 24 25 24 24 25 26 27 27 25
28 26 25 24 23 23 22 21 21 21 22 23 23 23 23 22 22 22 22 22 21 19 18 19 21 23 24 23 22 22 23 24 24 24 24 24 23 23
26 25 24 23 22 21 20 18 18 19 18 18 18 19 20 20 21 21 21 20 20 19 18 18 19 20 21 21 21 21 21 21 22 22 21 21 21 20
25 23 22 21 21 19 18 17 16 15 16 15 14 15 16 17 17 18 18 18 18 17 17 17 17 17 18 19 19 18 19 19 18 18 19 19 18 18
22 21 20 20 19 18 17 16 14 13 14 13 12 13 15 16 16 16 17 17 17 17 16 15 16 16 17 17 17 16 17 17 16 16 16 17 16 16
21 20 19 19 18 16 15 13 12 11 12 12 11 12 13 14 15 15 16 15 16 15 14 14 14 15 16 15 14 14 15 15 15 15 15 14 14 14
20 19 18 17 15 13 12 10 9 9 9 10 11 11 12 13 14 15 14 13 13 14 13 13 13 14 14 13 13 13 14 13 13 13 13 12 12 13
18 17 16 15 13 12 10 8 7 7 7 8 10 10 11 12 13 13 13 13 12 12 11 11 11 12 13 13 13 13 13 12 12 13 12 11 11 11
16 16 15 14 12 10 8 6 6 7 7 8 9 9 10 10 11 11 11 11 10 10 10 10 10 10 11 12 11 11 10 10 10 11 10 11 11 10
14 14 13 12 10 8 7 7 7 7 7 7 8 9 9 9 9 9 10 10 9 9 11 11 11 11 11 11 10 10 10 10 9 9 9 9 10 10

GEFSNE_500_meanwind_204.txt.gz
Wind_Speed
48 49 50 51 51 52 54 56 56 55 53 52 53 53 53 53 52 51 51 51 50 50 51 50 50 50 50 50 50 52 53 54 55 55 55 55 55 55
48 48 49 50 51 53 54 55 56 56 54 51 52 52 52 51 50 49 48 47 46 46 47 46 46 46 46 46 47 49 49 50 52 53 53 54 54 53
48 48 49 50 51 53 53 53 54 55 54 51 51 50 50 48 47 46 45 44 43 42 42 41 41 41 42 42 44 46 47 46 48 49 49 50 50 50
48 49 50 51 51 52 52 52 52 53 53 51 49 48 47 45 44 43 42 41 40 39 39 38 38 38 38 39 40 42 44 44 45 46 46 46 46 47
48 49 50 51 51 51 51 50 50 49 49 48 46 44 42 42 41 39 38 38 38 39 38 36 36 35 36 37 38 39 40 41 42 42 43 44 43 43
48 48 49 50 49 49 48 47 47 46 45 44 43 40 38 38 38 37 36 36 36 37 37 36 35 34 34 35 35 36 37 38 39 38 39 40 40 41
47 47 47 46 46 45 44 44 43 42 41 40 39 38 36 34 35 34 34 33 33 34 34 34 33 32 32 32 33 34 35 35 35 35 36 37 38 37
45 45 44 43 43 42 41 41 41 40 39 37 36 35 34 31 31 32 32 30 30 31 32 31 31 31 30 31 31 31 33 33 32 33 33 34 34 35
43 43 42 42 41 40 38 37 37 36 36 35 34 32 32 31 30 29 29 29 28 28 28 28 29 28 29 29 28 29 30 31 31 31 31 31 32 32
40 40 40 39 39 38 37 36 35 35 35 34 33 32 31 30 28 28 27 27 26 25 26 26 25 24 24 24 26 27 28 28 28 28 28 28 28 28
37 37 37 37 37 37 36 35 34 33 32 31 31 30 28 28 27 26 25 25 24 23 23 23 22 21 21 22 22 24 25 26 26 26 27 26 24 25
34 34 35 35 35 35 34 33 32 31 30 29 29 27 26 26 25 24 23 23 23 22 21 22 20 19 19 19 20 21 21 21 22 22 22 22 22 22
32 33 33 34 34 34 33 32 31 30 28 27 25 24 23 22 22 21 20 20 20 19 19 20 19 19 19 18 18 19 19 19 19 18 18 18 18 18
31 32 32 33 33 32 31 30 29 28 25 24 22 21 20 20 20 20 19 18 18 18 18 18 18 18 17 17 17 17 18 17 16 16 16 16 17 17
31 32 32 32 31 29 28 28 28 26 24 22 21 20 19 18 18 17 17 16 16 16 17 16 16 15 14 14 14 15 16 16 16 15 16 16 17 17
31 31 31 31 29 27 27 26 25 23 21 20 19 17 16 16 15 15 15 15 14 13 13 13 14 13 12 12 13 14 15 15 15 15 15 16 16 16
30 30 30 28 27 25 24 23 22 20 19 17 16 16 15 16 15 15 15 15 13 12 11 10 10 9 9 10 11 11 11 12 13 13 13 13 14 14
29 29 28 26 24 23 22 21 19 19 18 17 16 16 16 15 14 13 12 12 11 10 10 9 9 8 8 9 9 10 10 10 11 11 11 11 11 12
28 27 26 24 22 21 20 19 18 17 16 16 15 15 15 13 12 11 10 10 9 9 8 8 7 7 7 7 8 9 9 9 9 9 8 9 9 10
26 25 23 20 19 19 17 16 16 15 15 15 14 13 12 11 10 10 10 10 9 8 8 8 8 7 7 8 8 8 9 8 9 9 9 9 9 8
24 22 19 18 17 16 15 14 14 15 14 13 12 11 9 9 8 9 9 9 9 8 7 8 8 7 8 8 8 8 8 9 9 9 9 9 8 8
21 19 18 16 15 14 13 13 14 14 12 10 9 8 7 6 5 6 7 8 7 7 6 6 7 7 7 7 8 9 9 9 9 9 9 9 8 8
20 18 17 15 14 13 12 13 13 12 10 8 7 6 5 5 4 5 6 6 6 5 6 6 6 6 6 6 8 8 9 9 9 9 8 8 9 9

GEFSNE_500_meanwind_210.txt.gz
Wind_Speed
45 46 47 48 49 50 51 53 53 53 52 52 53 53 54 55 56 56 56 55 54 54 53 52 52 52 52 52 53 53 53 53 53 52 52 51 52 52
46 46 47 49 50 50 51 53 54 55 54 52 52 52 53 54 54 54 54 53 52 52 50 50 49 49 49 48 48 48 49 49 49 48 47 48 48 49
46 46 47 48 49 50 51 52 53 54 54 51 51 51 51 51 50 51 51 50 49 48 47 47 46 45 44 43 43 44 44 43 44 44 42 43 44 46
46 47 47 49 49 50 51 52 52 53 52 50 49 48 48 47 47 47 47 46 44 44 43 43 42 41 40 39 39 40 40 40 40 40 40 40 41 42
46 47 48 49 49 50 50 51 51 51 50 49 47 46 45 45 44 43 43 42 41 40 39 39 39 38 37 36 36 36 35 36 37 37 38 37 37 37
46 47 47 48 48 48 48 48 48 48 47 46 44 43 42 41 41 40 39 38 37 36 35 35 34 34 33 32 31 31 31 33 34 34 34 34 35 35
46 46 46 46 46 46 46 46 46 46 45 43 42 41 40 38 37 37 36 34 33 33 32 31 31 30 29 28 28 28 27 28 29 30 31 31 32 33
45 44 44 44 44 45 45 45 44 44 43 41 40 39 37 36 35 34 32 31 31 31 30 28 28 27 26 26 27 26 26 27 27 26 27 28 28 29
43 42 42 42 43 43 43 43 42 42 41 39 38 38 35 33 33 32 30 29 28 27 26 25 24 24 25 25 26 26 26 26 27 26 25 26 26 28
41 41 41 42 42 41 40 40 39 38 38 37 37 35 34 32 31 30 28 27 25 23 23 22 22 23 24 24 24 25 25 26 26 25 24 23 24 25
40 40 40 40 40 40 39 38 37 36 36 36 35 33 32 32 31 28 26 25 22 21 22 22 22 22 22 22 23 23 24 24 24 22 22 22 22 22
38 37 37 38 38 38 37 36 35 34 34 33 31 30 31 30 28 26 24 22 21 20 20 21 21 21 22 22 23 22 22 22 21 21 20 20 19 18
35 34 35 35 35 35 35 35 34 34 33 31 29 29 28 26 24 23 21 21 19 18 18 18 19 19 20 20 21 21 21 20 19 19 19 19 18 17
33 32 32 32 32 32 32 32 32 32 30 28 27 27 25 23 22 21 20 20 18 17 16 16 17 17 17 17 17 18 18 18 17 17 17 18 17 17
31 31 31 31 31 31 31 30 30 29 28 26 25 23 22 21 20 19 18 17 16 14 14 15 14 13 13 13 13 14 15 15 15 15 16 16 16 15
30 30 30 31 30 30 29 29 28 27 25 23 22 20 20 19 18 17 15 14 14 14 14 13 12 11 11 10 10 10 11 12 13 14 14 15 15 14
30 29 30 29 29 28 27 26 25 24 22 20 19 19 18 17 16 15 13 12 12 12 12 12 12 11 10 10 9 9 9 9 11 12 13 13 13 13
29 28 28 27 27 26 24 23 23 22 20 18 17 16 16 15 14 12 12 11 11 12 12 11 11 10 9 9 8 8 8 9 10 10 11 11 11 11
27 27 26 26 26 24 23 22 21 19 18 17 15 14 14 13 12 11 10 10 10 10 10 10 9 9 9 9 9 8 8 8 8 9 9 10 9 9
26 26 25 25 24 23 21 20 19 18 16 15 14 13 13 12 11 10 10 10 10 9 9 9 9 8 8 8 8 8 8 7 7 7 7 8 7 7
26 26 25 24 23 21 20 19 18 16 14 13 12 12 12 11 10 9 9 9 9 9 9 9 8 7 7 7 7 7 7 6 6 6 6 5 4 5
25 24 23 22 21 20 18 17 15 13 13 12 12 12 11 10 10 9 9 9 9 8 7 7 7 6 6 6 5 5 5 5 6 6 5 4 5 5
24 23 22 20 19 18 16 14 13 12 12 12 12 12 12 11 10 9 8 8 7 7 7 6 6 6 6 6 6 6 6 6 7 7 7 7 7 6

GEFSNE_500_meanwind_216.txt.gz
Wind_Speed
43 44 45 46 46 48 49 49 49 49 47 48 48 49 51 52 53 53 54 53 52 51 50 50 50 50 49 49 49 49 49 48 48 48 49 49 48 48
44 45 46 46 47 48 49 49 50 51 51 49 49 50 51 52 52 52 52 50 50 49 49 48 48 48 48 46 46 46 46 46 46 45 45 45 45 44
44 45 46 46 46 48 49 50 50 51 51 49 49 50 51 50 49 49 49 49 48 48 47 46 45 45 44 44 42 42 41 42 42 42 42 41 41 41
44 45 45 46 47 48 49 49 50 50 51 50 49 49 49 48 47 47 47 47 46 45 45 44 43 42 40 40 39 38 37 37 37 37 38 37 38 38
44 45 45 46 47 48 48 49 49 50 50 51 49 48 48 47 46 45 45 44 43 43 42 40 39 38 37 35 35 34 33 33 33 32 33 33 34 34
44 45 46 47 46 46 47 48 49 49 49 49 48 47 46 45 44 43 42 41 41 40 39 38 37 35 33 32 31 31 31 30 28 28 28 28 29 29
44 46 46 45 45 46 46 47 48 48 47 47 46 45 44 43 43 42 40 39 37 36 36 36 34 32 30 30 29 28 27 27 25 24 25 25 25 26
45 45 44 44 44 45 46 47 47 46 46 46 45 44 43 42 41 40 39 37 35 34 34 31 30 29 28 27 26 26 25 24 23 23 23 23 22 22
44 43 42 43 44 44 45 44 44 44 44 44 43 42 42 41 40 38 37 36 34 33 31 28 28 28 26 25 25 24 24 23 22 21 21 21 21 22
42 42 42 43 43 43 42 42 42 42 41 41 40 40 40 40 39 37 36 33 33 31 30 28 27 27 26 25 25 24 23 22 21 21 21 21 20 20
42 42 43 43 42 42 42 41 41 39 39 39 39 39 38 38 37 35 33 32 30 29 28 27 26 25 24 23 22 22 21 21 20 20 20 19 19 18
41 42 42 41 41 41 41 40 39 37 37 37 36 37 37 36 35 34 32 30 28 26 26 25 24 23 21 20 21 20 19 18 18 18 18 18 18 17
39 39 39 39 39 39 39 38 37 36 35 35 36 36 35 34 33 31 29 27 25 24 23 23 22 20 18 17 18 18 16 16 16 16 16 15 16 17
38 38 37 37 37 37 36 36 35 34 33 34 34 34 32 31 29 28 26 24 23 22 21 21 19 17 16 15 15 15 14 13 13 12 13 14 15 15
36 36 35 35 35 34 34 34 33 32 33 32 31 30 29 27 25 24 23 22 20 20 19 18 17 17 16 15 14 13 12 12 11 11 11 11 11 11
34 33 32 33 33 33 32 32 31 31 31 30 28 27 26 24 23 22 21 20 19 18 18 17 17 15 13 12 12 11 11 11 11 10 10 10 9 10
32 31 31 32 32 31 31 30 29 29 28 27 26 25 24 23 21 21 19 18 18 17 16 16 15 14 12 11 10 10 11 10 10 9 9 9 8 9
30 30 31 31 31 29 28 27 28 27 26 25 25 23 22 20 20 19 19 18 17 16 15 15 14 12 11 11 11 11 11 10 9 8 9 8 7 7
29 29 30 30 28 27 26 25 25 25 24 24 23 21 21 20 19 18 18 17 15 14 13 13 11 10 10 11 11 11 10 8 7 6 6 6 5 5
28 28 28 27 25 24 24 24 24 24 24 23 22 20 19 18 17 17 17 15 14 13 12 11 10 10 10 9 9 9 7 6 6 5 5 5 4 4
27 26 25 23 22 22 22 23 23 23 22 22 20 18 17 16 16 16 15 14 13 12 12 11 10 10 9 7 6 6 5 5 4 3 3 2 2 2
26 24 23 22 22 22 22 22 22 22 21 20 18 17 16 15 15 15 15 13 12 12 11 10 9 8 7 6 5 4 3 2 2 2 1 1 2 2
24 23 22 21 21 21 21 21 21 21 20 18 17 16 15 14 14 14 13 12 12 11 10 9 8 8 7 5 4 3 1 1 3 4 4 5 5 5

GEFSNE_500_meanwind_222.txt.gz
Wind_Speed
39 40 41 41 42 43 44 45 46 46 46 46 47 48 49 50 51 51 52 54 54 54 53 52 50 50 50 49 48 47 46 46 46 46 47 46 46 44
40 41 41 42 43 44 45 46 47 48 48 47 47 48 49 50 51 53 53 53 53 52 52 50 49 48 47 46 44 44 44 44 44 44 44 42 42 40
41 41 42 43 43 44 46 47 48 49 49 47 48 48 50 51 52 52 52 52 51 50 49 46 46 45 44 43 43 42 41 41 41 40 39 38 37 36
42 42 42 43 44 45 46 47 48 49 49 48 48 48 50 51 52 52 51 50 49 47 45 44 43 42 41 41 40 40 39 39 38 36 34 34 33 33
42 42 43 44 45 46 47 48 48 48 49 48 48 49 50 51 51 50 48 47 46 44 43 42 40 40 39 39 38 38 37 36 34 32 31 30 30 30
42 42 43 44 45 46 47 48 48 48 48 48 48 49 49 49 48 46 45 44 43 41 40 39 39 38 38 37 37 36 35 33 31 29 28 28 28 29
41 42 43 44 45 46 46 47 47 47 47 48 48 48 48 46 45 44 43 40 39 38 37 37 36 36 36 36 35 34 32 30 29 28 28 28 27 27
42 43 43 44 45 45 45 46 47 47 47 47 47 47 45 43 42 42 40 37 35 34 34 34 34 34 33 33 32 30 29 28 26 26 26 26 26 25
42 43 43 44 44 45 45 45 46 46 46 46 46 44 42 41 40 39 37 35 33 32 32 32 33 32 31 30 29 29 28 26 25 25 24 24 24 23
42 43 43 43 43 44 44 44 45 45 44 44 42 41 40 40 39 37 34 32 32 32 32 31 30 29 28 28 28 27 26 25 25 24 23 22 22 22
42 42 42 42 42 42 43 43 43 42 42 41 39 39 39 38 37 34 32 31 30 30 30 29 27 27 26 25 24 24 23 22 22 21 21 20 19 19
41 41 41 41 41 41 41 41 41 40 39 38 38 38 37 36 33 31 30 29 29 28 28 27 26 25 23 22 22 22 21 21 20 20 19 18 17 16
40 40 40 40 40 39 39 38 37 36 36 36 35 35 34 32 30 28 29 28 27 26 26 25 24 23 22 20 21 21 20 19 18 17 16 15 15 15
37 37 37 38 37 36 35 35 34 35 34 33 33 31 30 28 27 27 27 26 25 23 23 22 21 21 20 20 20 19 18 18 16 15 14 13 13 13
35 34 34 35 34 34 34 33 34 34 33 32 30 29 27 26 25 25 25 24 23 22 21 20 19 20 20 19 18 17 16 16 15 14 13 12 11 12
32 32 32 32 32 32 32 32 32 32 31 30 29 27 25 24 23 23 22 23 22 21 20 19 19 19 18 17 16 15 15 14 13 12 11 11 11 11
31 31 30 30 30 31 31 30 30 30 29 28 26 24 22 22 21 21 22 22 21 20 19 18 18 18 17 17 16 15 14 12 12 11 10 10 9 8
29 29 28 28 29 29 29 28 28 28 28 26 23 21 20 20 20 21 21 21 20 20 18 16 16 16 16 15 15 13 12 11 10 9 9 7 5 4
27 27 27 27 27 28 27 27 27 26 25 22 20 20 20 20 20 20 20 20 19 17 16 14 14 14 14 14 13 12 10 8 7 7 6 6 5 4
25 25 25 26 25 25 25 25 25 24 22 20 20 19 19 19 19 19 19 18 16 15 13 13 13 13 12 11 10 9 8 6 5 4 4 4 4 3
24 24 24 24 24 24 24 24 23 22 20 19 18 18 18 18 18 18 17 16 15 14 13 13 12 10 10 9 9 8 7 5 4 3 3 3 3 2
23 23 23 22 23 24 23 22 21 20 19 18 17 17 17 17 16 16 16 15 14 13 12 12 10 8 8 7 7 6 6 5 3 3 2 2 1 2
22 22 21 22 22 22 21 21 20 19 18 17 17 16 16 16 15 15 15 15 14 12 10 9 8 7 7 6 6 6 5 3 2 1 1 1 3 4

GEFSNE_500_meanwind_228.txt.gz
Wind_Speed
38 38 39 40 41 43 43 45 45 45 44 46 47 49 50 51 51 52 52 52 51 51 52 52 51 50 48 46 45 44 44 43 42 41 40 41 40 40
38 39 40 41 42 43 44 45 46 47 47 47 49 50 51 52 53 53 52 52 52 52 52 52 50 47 45 44 43 42 41 41 40 40 40 40 40 39
38 39 40 41 43 44 45 46 47 48 48 49 50 51 52 52 52 52 52 52 51 51 50 49 47 44 43 42 41 40 39 39 38 39 39 39 38 38
39 40 41 42 44 44 45 47 48 49 50 50 50 50 51 52 51 50 50 50 49 48 46 45 42 41 40 39 38 37 37 37 37 37 37 36 35 34
40 41 42 43 44 45 46 47 48 49 50 50 50 50 50 49 49 48 48 47 46 44 42 40 39 39 38 37 36 35 36 36 36 35 34 34 34 33
40 42 43 44 44 45 46 47 48 49 50 49 49 48 47 46 46 46 45 44 42 40 39 37 37 37 36 36 35 35 35 34 34 33 33 33 33 32
40 42 43 44 45 46 47 47 48 49 49 48 47 45 45 44 44 44 42 40 38 37 36 35 35 35 34 34 34 33 33 33 33 33 32 32 32 31
40 42 42 43 44 45 46 46 47 47 46 45 44 44 43 43 43 42 40 38 35 34 33 33 33 32 32 31 31 32 32 32 32 32 31 30 30 29
40 41 42 43 43 44 44 45 46 45 44 43 43 43 43 42 42 40 39 38 35 33 32 31 31 30 30 30 30 31 31 31 31 31 30 29 29 28
40 41 42 42 42 43 43 44 43 42 42 42 43 43 42 41 39 38 37 36 34 31 31 30 29 29 29 29 30 31 31 31 31 30 29 28 27 26
39 40 41 41 42 42 42 42 41 41 41 42 42 42 40 38 37 37 35 33 31 30 30 29 27 28 29 29 30 30 30 30 29 28 26 25 24 23
39 39 40 41 41 40 40 39 40 40 40 40 40 39 38 36 35 34 33 31 30 29 28 28 28 28 28 28 28 28 28 27 27 25 24 23 22 20
38 39 39 39 38 38 38 38 39 39 39 39 38 36 35 34 33 32 31 30 29 28 28 28 28 28 28 26 26 26 26 25 24 23 21 20 18 16
38 38 38 37 37 37 37 38 38 38 38 37 35 34 32 31 31 30 29 28 28 28 27 28 27 27 27 25 25 24 23 22 22 20 19 18 16 15
37 37 36 36 36 36 36 37 37 36 36 34 32 31 30 30 29 28 27 27 26 27 26 26 26 26 26 24 23 22 21 20 19 18 17 15 13 11
35 35 34 34 34 34 34 34 34 33 32 30 29 29 28 27 26 26 25 25 24 24 24 25 25 25 24 23 22 20 19 18 17 16 14 13 11 10
33 32 32 32 32 31 31 31 31 29 28 28 28 27 26 25 25 24 24 23 23 23 22 23 23 23 22 21 20 18 17 16 16 15 13 12 10 8
30 29 29 29 29 29 29 28 28 27 26 27 27 26 25 24 24 23 23 22 22 21 20 21 21 21 21 20 18 16 16 15 14 13 11 9 7 6
28 27 27 27 27 27 26 26 26 25 25 25 25 24 23 23 23 22 21 20 20 20 20 20 20 20 19 17 15 15 15 14 13 11 9 7 6 5
26 25 26 26 26 25 25 25 25 24 24 24 24 22 22 22 21 20 20 19 19 19 19 19 19 19 17 15 14 13 13 13 12 10 8 6 5 5
24 24 25 25 24 24 24 24 24 23 23 23 22 21 21 20 19 19 19 19 18 18 18 18 18 16 15 14 13 12 11 12 11 9 7 6 6 5
23 24 24 23 23 24 23 23 23 22 22 21 21 20 19 19 18 17 17 17 17 17 17 17 15 14 14 14 13 11 11 10 9 8 6 5 5 5
23 23 22 22 22 22 22 21 21 21 20 20 19 19 18 17 16 16 16 16 17 17 16 15 14 14 14 14 13 11 10 8 7 6 5 4 4 5

GEFSNE_500_meanwind_234.txt.gz
Wind_Speed
36 36 36 36 36 37 39 40 41 42 42 43 45 47 49 50 52 53 53 54 53 52 51 50 50 49 48 48 46 44 43 42 41 40 40 40 39 39
36 36 36 36 37 38 39 41 42 43 44 44 46 48 50 52 53 53 53 52 51 49 49 48 48 47 46 44 43 41 40 39 39 39 38 38 37 38
36 37 37 37 38 39 40 41 43 44 45 46 48 50 51 52 52 52 51 49 48 48 47 46 46 45 44 42 41 39 38 37 37 36 36 35 36 36
37 37 37 37 39 40 41 42 43 44 46 47 49 50 51 50 50 50 49 47 47 46 46 46 45 44 42 40 39 38 36 36 35 33 33 33 33 34
37 37 37 38 40 41 41 42 43 45 47 48 49 49 49 49 48 47 46 46 46 46 45 44 43 41 39 38 37 36 36 35 34 33 32 32 32 32
37 37 38 39 40 41 42 43 44 45 47 48 48 48 48 47 46 45 44 44 44 44 43 42 41 39 38 36 36 35 35 34 33 32 32 31 31 31
37 37 38 40 41 42 43 43 44 46 47 48 47 46 46 45 44 43 43 42 42 42 41 41 40 38 36 35 34 33 32 32 32 31 31 31 31 31
37 38 39 40 41 42 43 44 45 45 46 46 45 44 43 42 42 42 42 42 41 40 39 38 37 35 34 33 33 32 32 31 31 31 31 31 30 30
38 39 39 40 41 41 42 43 44 44 44 44 43 43 42 41 41 42 42 41 40 39 37 35 33 33 32 32 32 31 31 30 30 30 30 29 28 28
38 39 39 40 40 41 41 41 42 43 43 42 42 42 41 41 42 42 41 40 38 38 36 33 31 30 30 30 30 29 29 28 28 27 27 26 25 24
38 39 39 39 39 40 40 41 41 41 41 41 41 41 41 41 41 40 39 37 35 34 33 30 28 27 27 28 28 28 28 26 25 25 25 23 22 21
37 38 38 38 39 39 40 40 39 39 40 40 39 39 39 39 38 37 36 34 32 30 28 27 26 26 26 26 27 27 25 24 24 24 22 21 19 18
36 37 37 37 38 39 39 38 38 38 38 38 37 36 35 35 34 33 32 31 29 27 26 25 26 26 25 24 24 24 24 23 22 21 20 19 18 16
36 36 36 36 37 37 37 36 37 37 36 34 33 32 31 31 31 30 30 28 27 26 25 25 25 25 25 24 23 22 22 21 20 20 20 19 17 14
35 35 35 35 35 35 35 35 35 33 32 31 29 29 29 29 29 28 27 26 25 24 24 24 24 23 23 22 21 20 20 19 19 19 19 17 14 12
33 33 34 34 34 33 32 32 31 29 28 27 26 27 27 28 27 26 25 24 23 22 22 22 22 22 21 21 20 20 20 19 18 17 16 15 12 10
33 33 32 32 31 30 29 29 27 26 26 25 25 25 26 26 26 25 23 21 21 20 20 20 19 20 20 20 20 20 19 18 17 16 16 14 11 9
32 31 30 29 28 27 27 26 25 24 24 24 24 25 25 24 23 22 20 20 19 19 18 18 18 19 19 20 19 19 19 18 17 15 13 11 8 7
29 28 27 26 26 26 25 24 23 22 22 23 23 23 23 22 21 19 19 18 17 17 17 17 17 18 17 17 18 19 19 18 16 14 11 8 6 5
26 25 25 24 24 24 24 22 21 21 22 22 22 22 21 20 19 18 17 17 16 16 16 17 17 16 16 17 17 18 18 17 15 11 8 6 5 4
24 24 23 23 23 23 22 21 20 20 21 21 21 21 20 18 17 16 17 16 15 15 15 16 15 15 15 16 16 17 17 16 14 10 8 6 4 4
23 22 22 22 22 21 20 19 19 19 19 19 19 18 17 16 16 16 16 16 15 15 15 15 14 13 14 15 15 16 16 14 13 10 8 6 4 3
21 21 21 20 20 19 18 18 18 18 18 17 17 16 15 15 15 16 16 16 16 15 15 14 13 13 13 14 15 15 13 12 11 9 8 7 5 4

GEFSNE_500_meanwind_240.txt.gz
Wind_Speed
37 36 36 37 37 37 38 39 39 39 39 41 42 43 45 46 47 48 49 49 51 52 52 52 52 52 51 50 50 49 48 47 46 44 43 42 41 40
36 36 36 36 35 36 37 39 39 40 40 41 42 44 45 46 48 49 50 51 52 51 52 51 51 50 49 48 48 48 46 45 44 42 41 40 39 38
37 37 37 36 37 37 38 39 39 40 41 41 43 45 46 48 48 50 50 50 50 51 51 50 49 48 48 47 47 46 45 44 42 40 39 37 37 36
37 36 37 37 38 38 38 39 40 41 42 42 44 46 47 48 49 49 49 49 49 49 48 48 47 47 47 46 45 44 43 41 39 38 36 35 34 33
37 37 37 37 37 38 39 40 41 41 42 43 45 46 47 48 48 47 48 49 48 48 47 47 46 46 46 45 43 42 40 38 36 35 34 32 31 30
36 37 37 37 37 38 39 40 41 42 43 44 46 46 46 46 47 47 47 47 46 46 46 46 46 45 44 42 41 39 38 36 34 32 31 29 29 28
36 36 36 37 37 38 39 40 41 42 43 44 45 45 45 45 46 46 46 45 44 44 45 45 45 43 42 40 39 37 35 33 31 30 29 28 27 27
36 36 35 36 37 38 39 40 42 42 43 43 44 44 45 45 45 45 44 43 42 42 43 43 42 40 39 37 36 34 32 31 30 29 28 26 26 26
36 35 35 36 37 38 39 40 41 42 43 43 43 44 44 44 43 42 42 42 42 41 40 39 38 37 35 35 33 31 31 30 30 29 27 25 25 25
36 36 36 38 38 38 39 39 40 41 42 42 43 43 43 42 42 41 41 41 40 39 38 37 35 34 33 32 31 30 30 29 29 27 25 24 24 24
36 36 37 38 38 39 38 38 39 41 42 42 42 42 42 41 40 40 40 39 37 37 36 34 33 32 31 30 30 29 29 28 27 25 24 24 24 23
35 36 36 37 37 38 37 38 39 40 41 41 41 40 40 39 39 39 39 37 35 34 33 32 31 30 28 27 27 28 27 27 25 24 23 23 22 22
36 36 36 36 36 37 37 38 39 39 39 39 39 38 37 37 37 37 36 35 33 32 32 31 29 28 27 25 25 25 26 25 24 23 22 21 21 20
36 36 35 35 35 37 37 38 38 37 37 37 36 35 35 35 35 35 34 33 32 31 30 29 28 27 25 23 23 23 24 24 23 22 21 21 20 19
35 35 34 35 36 36 37 37 36 35 35 34 33 33 33 33 32 32 31 31 30 29 28 28 26 25 23 22 22 22 22 21 22 21 20 20 19 16
34 34 34 34 35 36 35 34 33 32 32 31 31 31 31 30 30 30 29 28 27 27 26 25 23 22 21 21 21 21 21 21 21 20 20 19 17 14
33 32 32 32 33 33 32 30 30 30 30 29 29 28 28 28 28 28 27 26 25 24 23 22 21 21 21 21 20 20 20 20 20 19 19 17 15 13
31 31 31 31 31 30 28 28 28 28 27 27 26 26 26 27 27 26 25 24 23 22 21 20 20 20 20 20 20 18 18 19 19 19 18 16 14 13
29 29 29 29 28 27 26 25 26 26 25 24 24 25 25 25 25 24 23 22 21 21 20 20 20 19 18 18 17 17 17 18 18 17 16 15 13 12
28 28 28 27 26 25 24 24 24 23 23 23 23 24 24 24 23 22 21 20 19 19 19 19 18 18 17 16 15 16 17 17 16 15 15 15 13 12
26 26 26 25 24 23 23 22 22 22 21 22 22 23 23 22 21 20 19 19 18 18 18 18 17 17 16 15 14 15 16 16 16 15 14 13 13 12
24 24 24 24 23 22 21 21 20 20 20 21 21 21 21 21 19 18 17 17 17 17 17 16 15 15 15 13 13 14 14 15 14 14 14 13 13 12
23 23 23 23 22 22 21 20 19 19 19 20 20 20 20 19 18 17 16 16 17 17 16 15 15 14 13 12 13 13 14 14 14 14 13 13 12 12